Regional Weather Roundup
Issued by NWS

Home | Current Version | Previous Version | Text Only | Print | Product List | Glossary Off
Versions: 1 2 3 4 5 6 7 8 9 10 11 12 13 14 15 16 17 18 19 20 21 22 23 24 25 26 27 28 29 30 31 32 33 34 35 36 37 38 39 40 41 42 43 44 45 46 47 48 49 50

000
ASUS43 KDTX 290101
RWRMI
MICHIGAN HOURLY REGIONAL WEATHER ROUNDUP
NATIONAL WEATHER SERVICE DETROIT/PONTIAC MI
900 PM EDT SUN MAY 28 2017

NOTE: "FAIR" INDICATES FEW OR NO CLOUDS BELOW 12,000 FEET WITH NO
SIGNIFICANT WEATHER AND/OR OBSTRUCTION TO VISIBILITY.

MIZ047>049-052>055-059>063-066>070-074>076-081>083-290200-
SOUTHEAST LOWER MICHIGAN

CITY           SKY/WX    TMP DP  RH WIND       PRES   REMARKS
ADRIAN         LGT RAIN  66  62  87 W6        29.71R
ALMA           CLEAR     69  56  63 W7        29.69R
ANN ARBOR      CLOUDY    62  59  90 SE8       29.68F
BAD AXE        RAIN      62  60  93 S9G16     29.67R
CARO           LGT RAIN  66  64  93 SW5       29.67R
DETROIT CITY   CLOUDY    64  62  93 W5        29.69S
DETROIT        CLOUDY    63  58  83 S6        29.71R
FLINT          TSTM      66  63  90 CALM      29.68R FOG
GROSSE ILE     CLOUDY    62  58  86 CALM      29.70R
HILLSDALE      CLOUDY    68  63  83 W6        29.71S
HOWELL         CLOUDY    65  62  91 S6        29.68S FOG

CITY           SKY/WX    TMP DP  RH WIND       PRES   REMARKS
JACKSON        CLOUDY    68  61  78 W9        29.70R
LAMBERTVILLE   CLOUDY    63  61  93 S3        29.70R
LANSING        CLEAR     71  55  56 W13       29.70R
LAPEER         RAIN      66  61  81 SE6G22    29.67S
MASON          PTCLDY    70  61  71 W12       29.70R
MONROE         MOCLDY    62  59  90 SE6       29.71R
MT. CLEMENS    CLOUDY    62  62 100 CALM      29.67S
PONTIAC        LGT RAIN  63  60  90 S5        29.67F
PORT HOPE        N/A     59  53  80 E6        29.64F
PORT HURON     CLOUDY    63  57  82 S3        29.70R
TRI CITIES     CLEAR     71  58  63 W9        29.66R
MIDLAND        CLOUDY    72  55  56 NW5       29.66S
TROY           CLOUDY    65  58  78 S5        29.71F
SAGINAW HB     PTCLDY    72  54  53 NW13      29.66R
$$
MIZ043>046-050>051-056>058-064>065-071>073-077>080-290200-
SOUTHWEST LOWER MICHIGAN

CITY           SKY/WX    TMP DP  RH WIND       PRES   REMARKS
BATTLE CREEK   CLEAR     67  57  70 W8        29.73R
BENTON HARBOR  CLEAR     62  57  83 W3        29.75R
BIG RAPIDS     CLEAR     64  49  59 N6        29.70S
COLDWATER      PTCLDY    67  58  72 W12       29.74R
FREMONT        FAIR      65  52  63 CALM      29.71S
HOLLAND        CLEAR     62  55  77 W5        29.74R
GRAND RAPIDS   PTCLDY    66  51  58 W10       29.72R
IONIA          FAIR      69  55  59 W8        29.70R
KALAMAZOO      CLEAR     65  53  65 W8        29.75R
LUDINGTON      CLOUDY    61  56  85 S6        29.68S
MARSHALL       PTCLDY    68  57  67 W12G18    29.71R
MOUNT PLEASANT CLEAR     69  54  58 W5        29.68S
MUSKEGON       PTCLDY    58  54  86 SW6       29.72S
SOUTH HAVEN    CLEAR     63  58  85 CALM      29.75R
$$
MIZ016>042-290200-
NORTHERN LOWER MICHIGAN

CITY           SKY/WX    TMP DP  RH WIND       PRES   REMARKS
ALPENA         CLOUDY    60  59  96 CALM      29.69S
BEAVER ISLAND  FOG       51  50  97 CALM      29.68F VSB 1/4
BELLAIRE       CLEAR     60  56  89 CALM      29.69R
CADILLAC       CLEAR     62  54  74 W5        29.70S
CHARLEVOIX     CLEAR     59  54  85 SW3       29.71S
FRANKFORT      PTCLDY    61  54  77 CALM      29.67S
GAYLORD        CLEAR     64  54  69 NW3       29.70R
GRAYLING       CLEAR     63  54  71 W5        29.70S
HARBOR SPRINGS PTCLDY    57  57  98 CALM      29.69S
HOUGHTON LAKE  CLEAR     66  56  70 W7        29.70R
MANISTEE       CLEAR     64  56  75 SE5       29.68R HAZE
OSCODA         MOCLDY    60  58  91 N5        29.68R
PELLSTON       CLEAR     60  56  86 CALM      29.69S
ROGERS CITY    CLOUDY    59  57  93 CALM      29.70R
TRAVERSE CITY  PTCLDY    59  55  87 CALM      29.66S
$$
MIZ007>008-015-290200-
EASTERN UPPER MICHIGAN

CITY           SKY/WX    TMP DP  RH WIND       PRES   REMARKS
KINROSS        CLOUDY    56  55  97 SE8       29.69F FOG
MACKINAC ISLAN FOG       51  51 100 CALM      29.68F VSB 1/2
NEWBERRY       CLOUDY    54  53  97 S7        29.67F FOG
S. S. MARIE    CLOUDY    59  56  89 SE3       29.68S
MUNISING         N/A     56  54  93 S8        29.62F
$$
MIZ004>006-011>014-085-290200-
CENTRAL UPPER MICHIGAN

CITY           SKY/WX    TMP DP  RH WIND       PRES   REMARKS
MANISTIQUE     CLOUDY    52  49  89 CALM      29.68R FOG
ESCANABA       CLOUDY    54  53  97 E7        29.65F
SAWYER-GWINN   PTCLDY    54  52  94 S7        29.65S
$$
MIZ001>003-009>011-084-290200-
WESTERN UPPER MICHIGAN

CITY           SKY/WX    TMP DP  RH WIND       PRES   REMARKS
IRON MOUNTAIN  CLEAR     60  50  69 CALM      29.64S
HOUGHTON       PTCLDY    54  50  86 NW6       29.63S
COPPER HARBOR    N/A     54  49  83 VRB5      29.63R
IRONWOOD       CLOUDY    54  51  90 SW3       29.66S
$$

ABBREVIATIONS USED IN REMARKS
   TC - TEMPERATURE IN CELSIUS
  WCI - WIND CHILL INDEX
   HX - HEAT INDEX
  VSB - VISIBILITY




USA.gov is the U.S. government's official web portal to all federal, state and local government web resources and services.